When you browse on this site, cookies collect data to enhance your experience and personalize the content and advertising you see.
Visit our Privacy Policy to learn more. By continuing to use the site, you agree to this use of cookies and data.
  • In Netherlands
  • List of Countries
  • For 7 days
  • Water Temperature
  • Satellite Maps
  • Weather Map
  • Weather Widgets
  • user-avatar
    Login

    Hourly Weather Ryuttyu

    Today, 21 February, Thursday

    Time Temperature Precipitation Wind Pressure Humidity
    00:00 -12°C° 0.1 mm 8 mps 744 mmHg 78%
    01:00 -12°C° 0.1 mm 8 mps 746 mmHg 77%
    02:00 -13°C° 0 mm 7 mps 747 mmHg 75%
    03:00 -13°C° 0 mm 7 mps 748 mmHg 76%
    04:00 -13°C° 0 mm 7 mps 749 mmHg 77%
    05:00 -12°C° 0 mm 6 mps 750 mmHg 78%
    06:00 -14°C° 0 mm 6 mps 751 mmHg 79%
    07:00 -15°C° 0 mm 6 mps 752 mmHg 80%
    08:00 -15°C° 0 mm 5 mps 754 mmHg 83%
    09:00 -14°C° 0 mm 5 mps 754 mmHg 82%
    10:00 -13°C° 0 mm 5 mps 755 mmHg 81%
    11:00 -13°C° 0 mm 5 mps 756 mmHg 79%
    12:00 -12°C° 0 mm 5 mps 756 mmHg 79%
    13:00 -12°C° 0 mm 5 mps 757 mmHg 79%
    14:00 -12°C° 0 mm 5 mps 758 mmHg 79%
    15:00 -12°C° 0 mm 5 mps 759 mmHg 81%
    16:00 -12°C° 0 mm 4 mps 759 mmHg 83%
    17:00 -14°C° 0 mm 4 mps 760 mmHg 85%
    18:00 -14°C° 0 mm 4 mps 761 mmHg 86%
    19:00 -15°C° 0 mm 4 mps 761 mmHg 87%
    20:00 -15°C° 0 mm 4 mps 762 mmHg 87%
    21:00 -15°C° 0 mm 4 mps 763 mmHg 88%
    22:00 -16°C° 0 mm 4 mps 764 mmHg 89%
    23:00 -16°C° 0 mm 4 mps 764 mmHg 89%

    Tomorrow, 22 February, Friday

    Time Temperature Precipitation Wind Pressure Humidity
    00:00 -16°C° 0 mm 4 mps 765 mmHg 89%
    01:00 -17°C° 0 mm 4 mps 766 mmHg 89%
    02:00 -17°C° 0 mm 4 mps 766 mmHg 89%
    03:00 -17°C° 0 mm 4 mps 767 mmHg 87%
    04:00 -17°C° 0 mm 4 mps 767 mmHg 86%
    05:00 -18°C° 0 mm 4 mps 768 mmHg 85%
    06:00 -18°C° 0 mm 4 mps 768 mmHg 84%
    07:00 -18°C° 0 mm 4 mps 769 mmHg 83%
    08:00 -19°C° 0 mm 4 mps 770 mmHg 83%
    09:00 -16°C° 0 mm 3 mps 770 mmHg 82%
    10:00 -15°C° 0 mm 3 mps 770 mmHg 81%
    11:00 -14°C° 0 mm 3 mps 771 mmHg 80%
    12:00 -13°C° 0 mm 3 mps 771 mmHg 81%
    13:00 -13°C° 0 mm 3 mps 771 mmHg 82%
    14:00 -12°C° 0 mm 3 mps 771 mmHg 83%
    15:00 -13°C° 0 mm 3 mps 771 mmHg 85%
    16:00 -13°C° 0 mm 2 mps 771 mmHg 88%
    17:00 -14°C° 0 mm 2 mps 771 mmHg 90%
    18:00 -15°C° 0 mm 2 mps 771 mmHg 89%
    19:00 -15°C° 0 mm 2 mps 771 mmHg 88%
    20:00 -16°C° 0 mm 2 mps 771 mmHg 87%
    21:00 -16°C° 0 mm 2 mps 770 mmHg 87%
    22:00 -15°C° 0 mm 2 mps 770 mmHg 87%
    23:00 -15°C° 0 mm 2 mps 770 mmHg 86%

    Day after tomorrow, 23 February, Saturday

    Time Temperature Precipitation Wind Pressure Humidity
    00:00 -14°C° 0 mm 2 mps 769 mmHg 83%
    01:00 -14°C° 0 mm 3 mps 768 mmHg 80%
    02:00 -14°C° 0 mm 4 mps 768 mmHg 77%
    03:00 -12°C° 0.2 mm 4 mps 767 mmHg 82%
    04:00 -11°C° 0.2 mm 4 mps 766 mmHg 87%
    05:00 -12°C° 0.2 mm 5 mps 764 mmHg 92%
    06:00 -11°C° 0.7 mm 5 mps 764 mmHg 93%
    07:00 -10°C° 0.7 mm 5 mps 763 mmHg 93%
    08:00 -8°C° 0.7 mm 5 mps 762 mmHg 93%
    09:00 -6°C° 0.2 mm 5 mps 761 mmHg 93%
    10:00 -4°C° 0.2 mm 4 mps 761 mmHg 92%
    11:00 -2°C° 0.2 mm 4 mps 760 mmHg 92%
    12:00 -2°C° 0 mm 4 mps 760 mmHg 93%
    13:00 -1°C° 0 mm 4 mps 759 mmHg 95%
    14:00 0°C° 0 mm 4 mps 759 mmHg 97%
    15:00 0°C° 0 mm 4 mps 759 mmHg 97%
    16:00 0°C° 0 mm 4 mps 759 mmHg 97%
    17:00 0°C° 0 mm 4 mps 759 mmHg 97%
    18:00 0°C° 0 mm 4 mps 759 mmHg 97%
    19:00 0°C° 0 mm 4 mps 759 mmHg 97%
    20:00 +1°C° 0 mm 3 mps 759 mmHg 96%
    21:00 +1°C° 0 mm 3 mps 759 mmHg 97%
    22:00 +1°C° 0 mm 3 mps 759 mmHg 97%
    23:00 +1°C° 0 mm 3 mps 759 mmHg 97%

    24 February, Sunday

    Time Temperature Precipitation Wind Pressure Humidity
    00:00 0°C° 0 mm 3 mps 759 mmHg 97%
    01:00 0°C° 0 mm 3 mps 760 mmHg 96%
    02:00 0°C° 0 mm 3 mps 760 mmHg 96%
    03:00 0°C° 0 mm 3 mps 760 mmHg 96%
    04:00 0°C° 0 mm 3 mps 760 mmHg 96%
    05:00 -1°C° 0 mm 3 mps 760 mmHg 96%
    06:00 -1°C° 0 mm 3 mps 760 mmHg 96%
    07:00 -1°C° 0 mm 2 mps 760 mmHg 96%
    08:00 -1°C° 0 mm 2 mps 760 mmHg 96%
    09:00 -1°C° 0 mm 2 mps 760 mmHg 97%
    10:00 +1°C° 0 mm 2 mps 759 mmHg 98%
    11:00 +1°C° 0 mm 2 mps 759 mmHg 99%
    12:00 +1°C° 0.1 mm 2 mps 759 mmHg 99%
    13:00 +1°C° 0.1 mm 2 mps 758 mmHg 99%
    14:00 +1°C° 0.1 mm 2 mps 758 mmHg 99%
    15:00 +1°C° 0.1 mm 3 mps 757 mmHg 98%
    16:00 +1°C° 0.1 mm 3 mps 757 mmHg 98%
    17:00 0°C° 0.1 mm 4 mps 756 mmHg 97%
    18:00 0°C° 0 mm 4 mps 756 mmHg 96%
    19:00 +1°C° 0 mm 5 mps 755 mmHg 95%
    20:00 +1°C° 0 mm 5 mps 755 mmHg 94%
    21:00 +1°C° 0 mm 5 mps 755 mmHg 91%
    22:00 +1°C° 0 mm 6 mps 755 mmHg 87%
    23:00 +1°C° 0 mm 6 mps 755 mmHg 84%

    25 February, Monday

    Time Temperature Precipitation Wind Pressure Humidity
    00:00 -1°C° 0 mm 6 mps 755 mmHg 82%
    01:00 -2°C° 0 mm 6 mps 755 mmHg 80%
    02:00 -2°C° 0 mm 6 mps 756 mmHg 78%
    03:00 -2°C° 0 mm 6 mps 756 mmHg 78%
    04:00 -3°C° 0 mm 6 mps 756 mmHg 78%
    05:00 -3°C° 0 mm 6 mps 756 mmHg 78%
    06:00 -3°C° 0 mm 6 mps 755 mmHg 78%
    07:00 -3°C° 0 mm 6 mps 755 mmHg 78%
    08:00 -3°C° 0 mm 6 mps 754 mmHg 77%
    09:00 -3°C° 0 mm 6 mps 754 mmHg 76%
    10:00 -2°C° 0 mm 6 mps 754 mmHg 74%
    11:00 -1°C° 0 mm 6 mps 754 mmHg 73%
    12:00 -1°C° 0 mm 7 mps 754 mmHg 72%
    13:00 -1°C° 0 mm 7 mps 754 mmHg 72%
    14:00 -1°C° 0 mm 7 mps 754 mmHg 71%
    15:00 -1°C° 0 mm 6 mps 754 mmHg 73%
    16:00 -2°C° 0 mm 6 mps 754 mmHg 74%
    17:00 -2°C° 0 mm 6 mps 754 mmHg 75%
    18:00 -2°C° 0 mm 5 mps 755 mmHg 78%
    19:00 -4°C° 0 mm 5 mps 755 mmHg 80%
    20:00 -3°C° 0 mm 4 mps 755 mmHg 82%
    21:00 -4°C° 0 mm 4 mps 755 mmHg 84%
    22:00 -4°C° 0 mm 4 mps 755 mmHg 86%
    23:00 -5°C° 0 mm 3 mps 755 mmHg 89%

    26 February, Tuesday

    Time Temperature Precipitation Wind Pressure Humidity
    00:00 -5°C° 0 mm 3 mps 755 mmHg 90%
    01:00 -5°C° 0 mm 3 mps 754 mmHg 92%
    02:00 -5°C° 0 mm 2 mps 754 mmHg 93%
    03:00 -5°C° 0 mm 2 mps 753 mmHg 93%
    04:00 -5°C° 0 mm 2 mps 752 mmHg 94%
    05:00 -4°C° 0 mm 2 mps 752 mmHg 94%
    06:00 -2°C° 0.3 mm 1 mps 751 mmHg 95%
    07:00 -2°C° 0.3 mm 1 mps 750 mmHg 96%
    08:00 -3°C° 0.3 mm 0 mps 749 mmHg 97%
    09:00 -2°C° 0.3 mm 1 mps 749 mmHg 95%
    10:00 -1°C° 0.3 mm 1 mps 749 mmHg 93%
    11:00 -1°C° 0.3 mm 1 mps 749 mmHg 91%
    12:00 -2°C° 0 mm 2 mps 750 mmHg 89%
    13:00 -2°C° 0 mm 2 mps 750 mmHg 87%
    14:00 -1°C° 0 mm 3 mps 751 mmHg 84%
    15:00 -2°C° 0 mm 2 mps 752 mmHg 87%
    16:00 -3°C° 0 mm 2 mps 752 mmHg 89%
    17:00 -3°C° 0 mm 2 mps 753 mmHg 91%
    18:00 -4°C° 0 mm 2 mps 754 mmHg 92%
    19:00 -4°C° 0 mm 2 mps 754 mmHg 93%
    20:00 -5°C° 0 mm 2 mps 755 mmHg 94%
    21:00 -5°C° 0 mm 2 mps 755 mmHg 95%
    22:00 -6°C° 0 mm 2 mps 756 mmHg 95%
    23:00 -6°C° 0 mm 2 mps 756 mmHg 95%
    Show more